Flag for Canada Weather past 2 weeks in Burnaby, British Columbia, Canada

Now
68 °F

Clear.


Feels Like: 68 °F
Forecast: 66 / 90 °F
Wind: 16 mph from Northwest

Location: Vancouver International Air-Port

Current Time: Jul 2, 2015 at 1:20:09 AM

Latest Report: Jul 2, 2015 at 1:00 AM


Visibility: 30 mi

Pressure: 29.96 "Hg

Humidity: 78%

Dew point: 61 °F

Location of BurnabyLocation

Historic Weather in Burnaby — Graph

°F

Burnaby temperature yesterday

Maximum temperature yesterday: 75 °F (at 5:00 PM)
Minimum temperature yesterday: 63 °F (at 5:00 AM)
Average temperature yesterday: 69 °F

Past Weeks' High & Low Weather Summary

 TemperatureHumidityPressure
High81 °F (Jun 29, 12:00 PM)94% (Jun 18, 10:00 PM)30.15 "Hg (Jun 18, 10:00 PM)
Low54 °F (Jun 17, 4:00 AM)40% (Jun 23, 9:00 PM)29.87 "Hg (Jun 27, 9:00 PM)
Average67 °F69%30.02 "Hg
* Reported Midnight between Jun 16 and Jun 17 — Midnight between Jul 1 and Jul 2, Burnaby, Weather by CustomWeather, © 2015

Note: Actual official high and low records may vary slightly from our data, if they occured in-between our weather recording intervals... More about our weather records

Advertising

Burnaby weather history for previous 24 hours

 ConditionsComfort  
Time TempWeatherWind HumidityBarometerVisibility
12:00 AM
Thu, Jul 2
70 °FClear.13 mph73%29.94 "Hg30 mi
11:00 PM
Wed, Jul 1
70 °FClear.13 mph73%29.93 "Hg30 mi
10:00 PM70 °FSunny.13 mph73%29.93 "Hg30 mi
9:00 PM70 °FSunny.13 mph73%29.93 "Hg30 mi
8:00 PM72 °FSunny.13 mph73%29.93 "Hg30 mi
7:00 PM73 °FSunny.14 mph69%29.94 "Hg30 mi
6:00 PM73 °FSunny.15 mph69%29.95 "Hg30 mi
5:00 PM75 °FSunny.18 mph65%29.97 "Hg30 mi
4:00 PM73 °FSunny.20 mph65%29.98 "Hg30 mi
3:00 PM73 °FSunny.22 mph65%30.01 "Hg30 mi
2:00 PM73 °FSunny.21 mph65%30.02 "Hg30 mi
1:00 PM72 °FSunny.21 mph65%30.04 "Hg30 mi
12:00 PM72 °FSunny.21 mph65%30.05 "Hg30 mi
11:00 AM70 °FPassing clouds.21 mph69%30.06 "Hg30 mi
10:00 AM68 °FSunny.18 mph73%30.07 "Hg30 mi
9:00 AM66 °FSunny.20 mph73%30.08 "Hg30 mi
8:00 AM66 °FSunny.20 mph73%30.08 "Hg30 mi
7:00 AM64 °FSunny.20 mph78%30.08 "Hg30 mi
6:00 AM63 °FClear.18 mph83%30.06 "Hg30 mi
5:00 AM63 °FPassing clouds.16 mph83%30.05 "Hg30 mi
4:00 AM64 °FPassing clouds.20 mph83%30.04 "Hg20 mi
3:00 AM64 °FPassing clouds.15 mph83%30.04 "Hg15 mi
2:00 AM66 °FPassing clouds.23 mph73%30.03 "Hg15 mi
1:00 AM66 °FPassing clouds.17 mph78%30.04 "Hg15 mi
Weather by CustomWeather, © 2015

See weather overviewHow to use our weather pages